Year,Month,Day,Hour,Minute,Value (Times are PST for temperature in C)
2017,05,25,00,00,9.90
2017,05,25,00,01,9.90
2017,05,25,00,02,9.90
2017,05,25,00,03,9.90
2017,05,25,00,04,9.90
2017,05,25,00,05,9.90
2017,05,25,00,06,9.80
2017,05,25,00,07,9.80
2017,05,25,00,08,9.80
2017,05,25,00,09,9.80
2017,05,25,00,10,9.80
2017,05,25,00,11,9.70
2017,05,25,00,12,9.70
2017,05,25,00,13,9.70
2017,05,25,00,14,9.70
2017,05,25,00,15,9.70
2017,05,25,00,16,9.70
2017,05,25,00,17,9.70
2017,05,25,00,18,9.70
2017,05,25,00,19,9.70
2017,05,25,00,20,9.70
2017,05,25,00,21,9.70
2017,05,25,00,22,9.60
2017,05,25,00,23,9.60
2017,05,25,00,24,9.60
2017,05,25,00,25,9.60
2017,05,25,00,26,9.60
2017,05,25,00,27,9.60
2017,05,25,00,28,9.60
2017,05,25,00,29,9.60
2017,05,25,00,30,9.60
2017,05,25,00,31,9.60
2017,05,25,00,32,9.60
2017,05,25,00,33,9.60
2017,05,25,00,34,9.60
2017,05,25,00,35,9.60
2017,05,25,00,36,9.60
2017,05,25,00,37,9.60
2017,05,25,00,38,9.60
2017,05,25,00,39,9.60
2017,05,25,00,40,9.60
2017,05,25,00,41,9.60
2017,05,25,00,42,9.60
2017,05,25,00,43,9.60
2017,05,25,00,44,9.60
2017,05,25,00,45,9.60
2017,05,25,00,46,9.60
2017,05,25,00,47,9.60
2017,05,25,00,48,9.60
2017,05,25,00,49,9.60
2017,05,25,00,50,9.60
2017,05,25,00,51,9.60
2017,05,25,00,52,9.60
2017,05,25,00,53,9.50
2017,05,25,00,54,9.60
2017,05,25,00,55,9.50
2017,05,25,00,56,9.50
2017,05,25,00,57,9.50
2017,05,25,00,58,9.50
2017,05,25,00,59,9.50
2017,05,25,01,00,9.50
2017,05,25,01,01,9.50
2017,05,25,01,02,9.50
2017,05,25,01,03,9.50
2017,05,25,01,04,9.50
2017,05,25,01,05,9.50
2017,05,25,01,06,9.50
2017,05,25,01,07,9.50
2017,05,25,01,08,9.50
2017,05,25,01,09,9.40
2017,05,25,01,10,9.40
2017,05,25,01,11,9.40
2017,05,25,01,12,9.40
2017,05,25,01,13,9.40
2017,05,25,01,14,9.30
2017,05,25,01,15,9.30
2017,05,25,01,16,9.30
2017,05,25,01,17,9.30
2017,05,25,01,18,9.30
2017,05,25,01,19,9.30
2017,05,25,01,20,9.20
2017,05,25,01,21,9.20
2017,05,25,01,22,9.20
2017,05,25,01,23,9.20
2017,05,25,01,24,9.20
2017,05,25,01,25,9.10
2017,05,25,01,26,9.10
2017,05,25,01,27,9.10
2017,05,25,01,28,9.10
2017,05,25,01,29,9.10
2017,05,25,01,30,9.00
2017,05,25,01,31,9.00
2017,05,25,01,32,9.00
2017,05,25,01,33,9.00
2017,05,25,01,34,9.00
2017,05,25,01,35,9.00
2017,05,25,01,36,8.90
2017,05,25,01,37,8.90
2017,05,25,01,38,8.90
2017,05,25,01,39,8.90
2017,05,25,01,40,8.90
2017,05,25,01,41,8.90
2017,05,25,01,42,8.90
2017,05,25,01,43,8.80
2017,05,25,01,44,8.80
2017,05,25,01,45,8.80
2017,05,25,01,46,8.80
2017,05,25,01,47,8.80
2017,05,25,01,48,8.80
2017,05,25,01,49,8.80
2017,05,25,01,50,8.80
2017,05,25,01,51,8.80
2017,05,25,01,52,8.80
2017,05,25,01,53,8.80
2017,05,25,01,54,8.80
2017,05,25,01,55,8.80
2017,05,25,01,56,8.80
2017,05,25,01,57,8.80
2017,05,25,01,58,8.80
2017,05,25,01,59,8.80
2017,05,25,02,00,8.80
2017,05,25,02,01,8.80
2017,05,25,02,02,8.80
2017,05,25,02,03,8.80
2017,05,25,02,04,8.80
2017,05,25,02,05,8.80
2017,05,25,02,06,8.80
2017,05,25,02,07,8.80
2017,05,25,02,08,8.80
2017,05,25,02,09,8.80
2017,05,25,02,10,8.80
2017,05,25,02,11,8.80
2017,05,25,02,12,8.80
2017,05,25,02,13,8.80
2017,05,25,02,14,8.80
2017,05,25,02,15,8.80
2017,05,25,02,16,8.80
2017,05,25,02,17,8.80
2017,05,25,02,18,8.80
2017,05,25,02,19,8.80
2017,05,25,02,20,8.80
2017,05,25,02,21,8.80
2017,05,25,02,22,8.80
2017,05,25,02,23,8.90
2017,05,25,02,24,8.90
2017,05,25,02,25,8.90
2017,05,25,02,26,8.90
2017,05,25,02,27,8.90
2017,05,25,02,28,8.90
2017,05,25,02,29,8.90
2017,05,25,02,30,8.90
2017,05,25,02,31,8.90
2017,05,25,02,32,8.90
2017,05,25,02,33,9.00
2017,05,25,02,34,9.00
2017,05,25,02,35,9.00
2017,05,25,02,36,9.00
2017,05,25,02,37,9.00
2017,05,25,02,38,9.00
2017,05,25,02,39,9.00
2017,05,25,02,40,8.90
2017,05,25,02,41,8.90
2017,05,25,02,42,8.90
2017,05,25,02,43,8.90
2017,05,25,02,44,8.90
2017,05,25,02,45,8.90
2017,05,25,02,46,8.90
2017,05,25,02,47,8.90
2017,05,25,02,48,8.90
2017,05,25,02,49,8.90
2017,05,25,02,50,9.00
2017,05,25,02,51,9.00
2017,05,25,02,52,9.00
2017,05,25,02,53,9.00
2017,05,25,02,54,9.10
2017,05,25,02,55,9.10
2017,05,25,02,56,9.10
2017,05,25,02,57,9.10
2017,05,25,02,58,9.10
2017,05,25,02,59,9.20
2017,05,25,03,00,9.20
2017,05,25,03,01,9.20
2017,05,25,03,02,9.30
2017,05,25,03,03,9.30
2017,05,25,03,04,9.30
2017,05,25,03,05,9.40
2017,05,25,03,06,9.40
2017,05,25,03,07,9.50
2017,05,25,03,08,9.50
2017,05,25,03,09,9.50
2017,05,25,03,10,9.60
2017,05,25,03,11,9.60
2017,05,25,03,12,9.70
2017,05,25,03,13,9.70
2017,05,25,03,14,9.70
2017,05,25,03,15,9.70
2017,05,25,03,16,9.70
2017,05,25,03,17,9.70
2017,05,25,03,18,9.70
2017,05,25,03,19,9.80
2017,05,25,03,20,9.80
2017,05,25,03,21,9.80
2017,05,25,03,22,9.80
2017,05,25,03,23,9.80
2017,05,25,03,24,9.80
2017,05,25,03,25,9.80
2017,05,25,03,26,9.70
2017,05,25,03,27,9.70
2017,05,25,03,28,9.70
2017,05,25,03,29,9.70
2017,05,25,03,30,9.70
2017,05,25,03,31,9.70
2017,05,25,03,32,9.70
2017,05,25,03,33,9.70
2017,05,25,03,34,9.70
2017,05,25,03,35,9.70
2017,05,25,03,36,9.70
2017,05,25,03,37,9.70
2017,05,25,03,38,9.70
2017,05,25,03,39,9.70
2017,05,25,03,40,9.70
2017,05,25,03,41,9.70
2017,05,25,03,42,9.70
2017,05,25,03,43,9.70
2017,05,25,03,44,9.80
2017,05,25,03,45,9.80
2017,05,25,03,46,9.80
2017,05,25,03,47,9.80
2017,05,25,03,48,9.80
2017,05,25,03,49,9.80
2017,05,25,03,50,9.90
2017,05,25,03,51,9.90
2017,05,25,03,52,9.80
2017,05,25,03,53,9.80
2017,05,25,03,54,9.80
2017,05,25,03,55,9.80
2017,05,25,03,56,9.80
2017,05,25,03,57,9.80
2017,05,25,03,58,9.80
2017,05,25,03,59,9.80
2017,05,25,04,00,9.80
2017,05,25,04,01,9.80
2017,05,25,04,02,9.80
2017,05,25,04,03,9.80
2017,05,25,05,27,8.30
2017,05,25,05,28,8.30
2017,05,25,05,29,8.30
2017,05,25,05,30,8.30
2017,05,25,05,31,8.30
2017,05,25,05,32,8.20
2017,05,25,05,33,8.20
2017,05,25,05,34,8.20
2017,05,25,05,35,8.20
2017,05,25,05,36,8.20
2017,05,25,05,37,8.20
2017,05,25,05,38,8.20
2017,05,25,05,39,8.20
2017,05,25,05,40,8.20
2017,05,25,05,41,8.20
2017,05,25,05,42,8.20
2017,05,25,05,43,8.10
2017,05,25,05,44,8.10
2017,05,25,05,45,8.10
2017,05,25,05,46,8.10
2017,05,25,05,47,8.10
2017,05,25,05,48,8.10
2017,05,25,05,49,8.10
2017,05,25,05,50,8.10
2017,05,25,05,51,8.10
2017,05,25,05,52,8.10
2017,05,25,05,53,8.10
2017,05,25,05,54,8.10
2017,05,25,05,55,8.10
2017,05,25,05,56,8.10
2017,05,25,05,57,8.10
2017,05,25,05,58,8.10
2017,05,25,05,59,8.10
2017,05,25,06,00,8.10
2017,05,25,06,01,8.10
2017,05,25,06,02,8.10
2017,05,25,06,03,8.10
2017,05,25,06,04,8.10
2017,05,25,06,05,8.10
2017,05,25,06,06,8.10
2017,05,25,06,07,8.10
2017,05,25,06,08,8.10
2017,05,25,06,09,8.20
2017,05,25,06,10,8.20
2017,05,25,06,11,8.20
2017,05,25,06,12,8.20
2017,05,25,06,13,8.20
2017,05,25,06,14,8.20
2017,05,25,06,15,8.20
2017,05,25,06,16,8.20
2017,05,25,06,17,8.20
2017,05,25,06,18,8.20
2017,05,25,06,19,8.20
2017,05,25,06,20,8.20
2017,05,25,06,21,8.20
2017,05,25,06,22,8.20
2017,05,25,06,23,8.20
2017,05,25,06,24,8.30
2017,05,25,06,25,8.30
2017,05,25,06,26,8.30
2017,05,25,06,27,8.40
2017,05,25,06,28,8.40
2017,05,25,06,29,8.40
2017,05,25,06,30,8.40
2017,05,25,06,31,8.50
2017,05,25,06,32,8.50
2017,05,25,06,33,8.50
2017,05,25,06,34,8.50
2017,05,25,06,35,8.60
2017,05,25,06,36,8.60
2017,05,25,06,37,8.60
2017,05,25,06,38,8.60
2017,05,25,06,39,8.60
2017,05,25,06,40,8.60
2017,05,25,06,41,8.60
2017,05,25,06,42,8.60
2017,05,25,06,43,8.70
2017,05,25,06,44,8.70
2017,05,25,06,45,8.70
2017,05,25,06,46,8.70
2017,05,25,06,47,8.70
2017,05,25,06,48,8.70
2017,05,25,06,49,8.70
2017,05,25,06,50,8.70
2017,05,25,06,51,8.80
2017,05,25,06,52,8.80
2017,05,25,06,53,8.80
2017,05,25,06,54,8.80
2017,05,25,06,55,8.90
2017,05,25,06,56,8.90
2017,05,25,06,57,8.90
2017,05,25,06,58,9.00
2017,05,25,06,59,9.10
2017,05,25,07,00,9.10
2017,05,25,07,01,9.20
2017,05,25,07,02,9.30
2017,05,25,07,03,9.40
2017,05,25,07,04,9.50
2017,05,25,07,05,9.50
2017,05,25,07,06,9.60
2017,05,25,07,07,9.70
2017,05,25,07,08,9.80
2017,05,25,07,09,9.90
2017,05,25,07,10,10.00
2017,05,25,07,11,10.10
2017,05,25,07,12,10.10
2017,05,25,07,13,10.20
2017,05,25,07,14,10.30
2017,05,25,07,15,10.30
2017,05,25,07,16,10.40
2017,05,25,07,17,10.40
2017,05,25,07,18,10.50
2017,05,25,07,19,10.60
2017,05,25,07,20,10.60
2017,05,25,07,21,10.70
2017,05,25,07,22,10.80
2017,05,25,07,23,10.80
2017,05,25,07,24,10.80
2017,05,25,07,25,10.90
2017,05,25,07,26,11.00
2017,05,25,07,27,11.00
2017,05,25,07,28,11.10
2017,05,25,07,29,11.10
2017,05,25,07,30,11.20
2017,05,25,07,31,11.30
2017,05,25,07,32,11.30
2017,05,25,07,33,11.40
2017,05,25,07,34,11.50
2017,05,25,07,35,11.60
2017,05,25,07,36,11.70
2017,05,25,07,37,11.70
2017,05,25,07,38,11.80
2017,05,25,07,39,11.80
2017,05,25,07,40,11.90
2017,05,25,07,41,12.00
2017,05,25,07,42,12.00
2017,05,25,07,43,12.10
2017,05,25,07,44,12.20
2017,05,25,07,45,12.30
2017,05,25,07,46,12.30
2017,05,25,07,47,12.30
2017,05,25,07,48,12.30
2017,05,25,07,49,12.40
2017,05,25,07,50,12.40
2017,05,25,07,51,12.50
2017,05,25,07,52,12.60
2017,05,25,07,53,12.70
2017,05,25,07,54,12.80
2017,05,25,07,55,12.90
2017,05,25,07,56,12.90
2017,05,25,07,57,13.00
2017,05,25,07,58,13.10
2017,05,25,07,59,13.10
2017,05,25,08,00,13.20
2017,05,25,08,01,13.30
2017,05,25,08,02,13.40
2017,05,25,08,03,13.50
2017,05,25,08,04,13.60
2017,05,25,08,05,13.60
2017,05,25,08,06,13.70
2017,05,25,08,07,13.80
2017,05,25,08,08,13.90
2017,05,25,08,09,13.90
2017,05,25,08,10,14.00
2017,05,25,08,11,14.00
2017,05,25,08,12,14.10
2017,05,25,08,13,14.10
2017,05,25,08,14,14.20
2017,05,25,08,15,14.20
2017,05,25,08,16,14.20
2017,05,25,08,17,14.30
2017,05,25,08,18,14.40
2017,05,25,08,19,14.40
2017,05,25,08,20,14.40
2017,05,25,08,21,14.50
2017,05,25,08,22,14.50
2017,05,25,08,23,14.60
2017,05,25,08,24,14.60
2017,05,25,08,25,14.60
2017,05,25,08,26,14.70
2017,05,25,08,27,14.70
2017,05,25,08,28,14.80
2017,05,25,08,29,14.80
2017,05,25,08,30,14.80
2017,05,25,08,31,14.80
2017,05,25,08,32,14.80
2017,05,25,08,33,14.90
2017,05,25,08,34,14.90
2017,05,25,08,35,14.90
2017,05,25,08,36,14.90
2017,05,25,08,37,14.90
2017,05,25,08,38,14.90
2017,05,25,08,39,14.90
2017,05,25,08,40,14.90
2017,05,25,08,41,14.90
2017,05,25,08,42,14.90
2017,05,25,08,43,14.90
2017,05,25,08,44,15.00
2017,05,25,08,45,15.10
2017,05,25,08,46,15.20
2017,05,25,08,47,15.20
2017,05,25,08,48,15.30
2017,05,25,08,49,15.30
2017,05,25,08,50,15.20
2017,05,25,08,51,15.20
2017,05,25,08,52,15.20
2017,05,25,08,53,15.20
2017,05,25,08,54,15.20
2017,05,25,08,55,15.20
2017,05,25,08,56,15.30
2017,05,25,08,57,15.30
2017,05,25,08,58,15.30
2017,05,25,08,59,15.40
2017,05,25,09,00,15.40
2017,05,25,09,01,15.50
2017,05,25,09,02,15.50
2017,05,25,09,03,15.50
2017,05,25,09,04,15.50
2017,05,25,09,05,15.50
2017,05,25,09,06,15.60
2017,05,25,09,07,15.60
2017,05,25,09,08,15.60
2017,05,25,09,09,15.60
2017,05,25,09,10,15.60
2017,05,25,09,11,15.50
2017,05,25,09,12,15.40
2017,05,25,09,13,15.40
2017,05,25,09,14,15.40
2017,05,25,09,15,15.40
2017,05,25,09,16,15.40
2017,05,25,09,17,15.40
2017,05,25,09,18,15.50
2017,05,25,09,19,15.50
2017,05,25,09,20,15.60
2017,05,25,09,21,15.60
2017,05,25,09,22,15.70
2017,05,25,09,23,15.70
2017,05,25,09,24,15.80
2017,05,25,09,25,15.80
2017,05,25,09,26,15.70
2017,05,25,09,27,15.70
2017,05,25,09,28,15.70
2017,05,25,09,29,15.70
2017,05,25,09,30,15.70
2017,05,25,09,31,15.70
2017,05,25,09,32,15.70
2017,05,25,09,33,15.70
2017,05,25,09,34,15.70
2017,05,25,09,35,15.80
2017,05,25,09,36,15.80
2017,05,25,09,37,15.80
2017,05,25,09,38,15.90
2017,05,25,09,39,15.90
2017,05,25,09,40,16.00
2017,05,25,09,41,16.00
2017,05,25,09,42,16.10
2017,05,25,09,43,16.10
2017,05,25,09,44,16.10
2017,05,25,09,45,16.10
2017,05,25,09,46,16.10
2017,05,25,09,47,16.10
2017,05,25,09,48,16.10
2017,05,25,09,49,16.10
2017,05,25,09,50,16.10
2017,05,25,09,51,16.00
2017,05,25,09,52,16.00
2017,05,25,09,53,15.90
2017,05,25,09,54,15.90
2017,05,25,09,55,15.90
2017,05,25,09,56,15.90
2017,05,25,09,57,16.00
2017,05,25,09,58,16.10
2017,05,25,09,59,16.10
2017,05,25,10,00,16.20
2017,05,25,10,01,16.30
2017,05,25,10,02,16.40
2017,05,25,10,03,16.40
2017,05,25,10,04,16.40
2017,05,25,10,05,16.40
2017,05,25,10,06,16.50
2017,05,25,10,07,16.50
2017,05,25,10,08,16.40
2017,05,25,10,09,16.40
2017,05,25,10,10,16.40
2017,05,25,10,11,16.40
2017,05,25,10,12,16.40
2017,05,25,10,13,16.40
2017,05,25,10,14,16.40
2017,05,25,10,15,16.40
2017,05,25,10,16,16.40
2017,05,25,10,17,16.40
2017,05,25,10,18,16.40
2017,05,25,10,19,16.40
2017,05,25,10,20,16.40
2017,05,25,10,21,16.40
2017,05,25,10,22,16.40
2017,05,25,10,23,16.40
2017,05,25,10,24,16.40
2017,05,25,10,25,16.40
2017,05,25,10,26,16.50
2017,05,25,10,27,16.50
2017,05,25,10,28,16.50
2017,05,25,10,29,16.50
2017,05,25,10,30,16.50
2017,05,25,10,31,16.50
2017,05,25,10,32,16.50
2017,05,25,10,33,16.40
2017,05,25,10,34,16.40
2017,05,25,10,35,16.40
2017,05,25,10,36,16.40
2017,05,25,10,37,16.50
2017,05,25,10,38,16.60
2017,05,25,10,39,16.60
2017,05,25,10,40,16.70
2017,05,25,10,41,16.70
2017,05,25,10,42,16.80
2017,05,25,10,43,16.80
2017,05,25,10,44,16.70
2017,05,25,10,45,16.70
2017,05,25,10,46,16.80
2017,05,25,10,47,16.80
2017,05,25,10,48,16.90
2017,05,25,10,49,17.00
2017,05,25,10,50,17.00
2017,05,25,10,51,17.10
2017,05,25,10,52,17.10
2017,05,25,10,53,17.10
2017,05,25,10,54,17.10
2017,05,25,10,55,17.10
2017,05,25,10,56,17.10
2017,05,25,10,57,17.20
2017,05,25,10,58,17.20
2017,05,25,10,59,17.20
2017,05,25,11,00,17.30
2017,05,25,11,01,17.30
2017,05,25,11,02,17.30
2017,05,25,11,03,17.30
2017,05,25,11,04,17.30
2017,05,25,11,05,17.30
2017,05,25,11,06,17.20
2017,05,25,11,07,17.20
2017,05,25,11,08,17.20
2017,05,25,11,09,17.10
2017,05,25,11,10,17.10
2017,05,25,11,11,17.00
2017,05,25,11,12,16.90
2017,05,25,11,13,16.80
2017,05,25,11,14,16.70
2017,05,25,11,15,16.60
2017,05,25,11,16,16.50
2017,05,25,11,17,16.50
2017,05,25,11,18,16.40
2017,05,25,11,19,16.40
2017,05,25,11,20,16.40
2017,05,25,11,21,16.50
2017,05,25,11,22,16.50
2017,05,25,11,23,16.70
2017,05,25,11,24,16.80
2017,05,25,11,25,16.90
2017,05,25,11,26,17.10
2017,05,25,11,27,17.20
2017,05,25,11,28,17.40
2017,05,25,11,29,17.50
2017,05,25,11,30,17.60
2017,05,25,11,31,17.60
2017,05,25,11,32,17.60
2017,05,25,11,33,17.60
2017,05,25,11,34,17.60
2017,05,25,11,35,17.60
2017,05,25,11,36,17.60
2017,05,25,11,37,17.50
2017,05,25,11,38,17.40
2017,05,25,11,39,17.30
2017,05,25,11,40,17.20
2017,05,25,11,41,17.20
2017,05,25,11,42,17.10
2017,05,25,11,43,17.10
2017,05,25,11,44,17.00
2017,05,25,11,45,17.00
2017,05,25,11,46,16.90
2017,05,25,11,47,16.90
2017,05,25,11,48,16.90
2017,05,25,11,49,16.80
2017,05,25,11,50,16.80
2017,05,25,11,51,16.70
2017,05,25,11,52,16.70
2017,05,25,11,53,16.70
2017,05,25,11,54,16.70
2017,05,25,11,55,16.70
2017,05,25,11,56,16.70
2017,05,25,11,57,16.70
2017,05,25,11,58,16.80
2017,05,25,11,59,16.90
2017,05,25,12,00,17.00
2017,05,25,12,01,17.10
2017,05,25,12,02,17.00
2017,05,25,12,03,16.90
2017,05,25,12,04,16.80
2017,05,25,12,05,16.80
2017,05,25,12,06,16.80
2017,05,25,12,07,16.80
2017,05,25,12,08,16.80
2017,05,25,12,09,16.70
2017,05,25,12,10,16.70
2017,05,25,12,11,16.60
2017,05,25,12,12,16.60
2017,05,25,12,13,16.60
2017,05,25,12,14,16.60
2017,05,25,12,15,16.70
2017,05,25,12,16,16.70
2017,05,25,12,17,16.60
2017,05,25,12,18,16.60
2017,05,25,12,19,16.60
2017,05,25,12,20,16.60
2017,05,25,12,21,16.40
2017,05,25,12,22,16.30
2017,05,25,12,23,16.20
2017,05,25,12,24,16.20
2017,05,25,12,25,16.30
2017,05,25,12,26,16.40
2017,05,25,12,27,16.50
2017,05,25,12,28,16.50
2017,05,25,12,29,16.60
2017,05,25,12,30,16.60
2017,05,25,12,31,16.60
2017,05,25,12,32,16.70
2017,05,25,12,33,16.70
2017,05,25,12,34,16.70
2017,05,25,12,35,16.80
2017,05,25,12,36,16.90
2017,05,25,12,37,17.00
2017,05,25,12,38,17.10
2017,05,25,12,39,17.20
2017,05,25,12,40,17.30
2017,05,25,12,41,17.30
2017,05,25,12,42,17.30
2017,05,25,12,43,17.40
2017,05,25,12,44,17.40
2017,05,25,12,45,17.40
2017,05,25,12,46,17.40
2017,05,25,12,47,17.50
2017,05,25,12,48,17.60
2017,05,25,12,49,17.60
2017,05,25,12,50,17.70
2017,05,25,12,51,17.80
2017,05,25,12,52,17.90
2017,05,25,12,53,17.90
2017,05,25,12,54,17.80
2017,05,25,12,55,17.80
2017,05,25,12,56,17.70
2017,05,25,12,57,17.70
2017,05,25,12,58,17.70
2017,05,25,12,59,17.70
2017,05,25,13,00,17.60
2017,05,25,13,01,17.50
2017,05,25,13,02,17.40
2017,05,25,13,03,17.30
2017,05,25,13,04,17.30
2017,05,25,13,05,17.30
2017,05,25,13,06,17.30
2017,05,25,13,07,17.40
2017,05,25,13,08,17.40
2017,05,25,13,09,17.40
2017,05,25,13,10,17.40
2017,05,25,13,11,17.40
2017,05,25,13,12,17.40
2017,05,25,13,13,17.40
2017,05,25,13,14,17.30
2017,05,25,13,15,17.40
2017,05,25,13,16,17.50
2017,05,25,13,17,17.60
2017,05,25,13,18,17.70
2017,05,25,13,19,17.80
2017,05,25,13,20,17.90
2017,05,25,13,21,17.90
2017,05,25,13,22,17.80
2017,05,25,13,23,17.80
2017,05,25,13,24,17.70
2017,05,25,13,25,17.70
2017,05,25,13,26,17.70
2017,05,25,13,27,17.70
2017,05,25,13,28,17.70
2017,05,25,13,29,17.80
2017,05,25,13,30,17.80
2017,05,25,13,31,18.00
2017,05,25,13,32,18.10
2017,05,25,13,33,18.20
2017,05,25,13,34,18.30
2017,05,25,13,35,18.30
2017,05,25,13,36,18.30
2017,05,25,13,37,18.40
2017,05,25,13,38,18.40
2017,05,25,13,39,18.50
2017,05,25,13,40,18.60
2017,05,25,13,41,18.70
2017,05,25,13,42,18.80
2017,05,25,13,43,18.90
2017,05,25,13,44,18.90
2017,05,25,13,45,18.90
2017,05,25,13,46,18.90
2017,05,25,13,47,18.90
2017,05,25,13,48,19.00
2017,05,25,13,49,19.00
2017,05,25,13,50,19.10
2017,05,25,13,51,19.10
2017,05,25,13,52,19.10
2017,05,25,13,53,19.20
2017,05,25,13,54,19.20
2017,05,25,13,55,19.10
2017,05,25,13,56,19.10
2017,05,25,13,57,19.10
2017,05,25,13,58,19.10
2017,05,25,13,59,19.00
2017,05,25,14,00,18.90
2017,05,25,14,01,18.80
2017,05,25,14,02,18.80
2017,05,25,14,03,18.70
2017,05,25,14,04,18.70
2017,05,25,14,05,18.70
2017,05,25,14,06,18.70
2017,05,25,14,07,18.80
2017,05,25,14,08,18.80
2017,05,25,14,09,18.90
2017,05,25,14,10,18.90
2017,05,25,14,11,18.90
2017,05,25,14,12,18.80
2017,05,25,14,13,18.80
2017,05,25,14,14,18.80
2017,05,25,14,15,18.70
2017,05,25,14,16,18.60
2017,05,25,14,17,18.40
2017,05,25,14,18,18.30
2017,05,25,14,19,18.20
2017,05,25,14,20,18.20
2017,05,25,14,21,18.30
2017,05,25,14,22,18.50
2017,05,25,14,23,18.60
2017,05,25,14,24,18.80
2017,05,25,14,25,18.90
2017,05,25,14,26,18.90
2017,05,25,14,27,18.80
2017,05,25,14,28,18.80
2017,05,25,14,29,18.70
2017,05,25,14,30,18.60
2017,05,25,14,31,18.60
2017,05,25,14,32,18.70
2017,05,25,14,33,18.70
2017,05,25,14,34,18.70
2017,05,25,14,35,18.70
2017,05,25,14,36,18.70
2017,05,25,14,37,18.80
2017,05,25,14,38,18.90
2017,05,25,14,39,18.90
2017,05,25,14,40,19.00
2017,05,25,14,41,19.10
2017,05,25,14,42,19.20
2017,05,25,14,43,19.30
2017,05,25,14,44,19.40
2017,05,25,14,45,19.40
2017,05,25,14,46,19.40
2017,05,25,14,47,19.50
2017,05,25,14,48,19.60
2017,05,25,14,49,19.50
2017,05,25,14,50,19.50
2017,05,25,14,51,19.40
2017,05,25,14,52,19.30
2017,05,25,14,53,19.20
2017,05,25,14,54,19.10
2017,05,25,14,55,19.00
2017,05,25,14,56,18.90
2017,05,25,14,57,19.00
2017,05,25,14,58,19.00
2017,05,25,14,59,19.00
2017,05,25,15,00,19.10
2017,05,25,15,01,19.10
2017,05,25,15,02,19.20
2017,05,25,15,03,19.20
2017,05,25,15,04,19.30
2017,05,25,15,05,19.40
2017,05,25,15,06,19.50
2017,05,25,15,07,19.60
2017,05,25,15,08,19.70
2017,05,25,15,09,19.80
2017,05,25,15,10,19.80
2017,05,25,15,11,19.80
2017,05,25,15,12,19.80
2017,05,25,15,13,19.80
2017,05,25,15,14,19.70
2017,05,25,15,15,19.80
2017,05,25,15,16,19.70
2017,05,25,15,17,19.60
2017,05,25,15,18,19.60
2017,05,25,15,19,19.60
2017,05,25,15,20,19.70
2017,05,25,15,21,19.80
2017,05,25,15,22,19.80
2017,05,25,15,23,19.90
2017,05,25,15,24,19.90
2017,05,25,15,25,19.90
2017,05,25,15,26,19.90
2017,05,25,15,27,19.80
2017,05,25,15,28,19.90
2017,05,25,15,29,19.90
2017,05,25,15,30,19.90
2017,05,25,15,31,19.90
2017,05,25,15,32,19.90
2017,05,25,15,33,19.90
2017,05,25,15,34,19.90
2017,05,25,15,35,19.90
2017,05,25,15,36,19.80
2017,05,25,15,37,19.80
2017,05,25,15,38,19.80
2017,05,25,15,39,19.70
2017,05,25,15,40,19.60
2017,05,25,15,41,19.60
2017,05,25,15,42,19.60
2017,05,25,15,43,19.60
2017,05,25,15,44,19.60
2017,05,25,15,45,19.60
2017,05,25,15,46,19.60
2017,05,25,15,47,19.50
2017,05,25,15,48,19.50
2017,05,25,15,49,19.40
2017,05,25,15,50,19.40
2017,05,25,15,51,19.40
2017,05,25,15,52,19.40
2017,05,25,15,53,19.50
2017,05,25,15,54,19.60
2017,05,25,15,55,19.70
2017,05,25,15,56,19.70
2017,05,25,15,57,19.70
2017,05,25,15,58,19.80
2017,05,25,15,59,19.80
2017,05,25,16,00,19.90
2017,05,25,16,01,19.90
2017,05,25,16,02,19.80
2017,05,25,16,03,19.80
2017,05,25,16,04,19.80
2017,05,25,16,05,19.80
2017,05,25,16,06,19.80
2017,05,25,16,07,19.70
2017,05,25,16,08,19.70
2017,05,25,16,09,19.70
2017,05,25,16,10,19.80
2017,05,25,16,11,19.80
2017,05,25,16,12,19.80
2017,05,25,16,13,19.80
2017,05,25,16,14,19.80
2017,05,25,16,15,19.70
2017,05,25,16,16,19.70
2017,05,25,16,17,19.60
2017,05,25,16,18,19.50
2017,05,25,16,19,19.50
2017,05,25,16,20,19.50
2017,05,25,16,21,19.40
2017,05,25,16,22,19.40
2017,05,25,16,23,19.40
2017,05,25,16,24,19.40
2017,05,25,16,25,19.40
2017,05,25,16,26,19.40
2017,05,25,16,27,19.40
2017,05,25,16,28,19.40
2017,05,25,16,29,19.50
2017,05,25,16,30,19.50
2017,05,25,16,31,19.60
2017,05,25,16,32,19.70
2017,05,25,16,33,19.80
2017,05,25,16,34,19.80
2017,05,25,16,35,19.90
2017,05,25,16,36,19.90
2017,05,25,16,37,19.90
2017,05,25,16,38,19.80
2017,05,25,16,39,19.80
2017,05,25,16,40,19.90
2017,05,25,16,41,19.90
2017,05,25,16,42,19.90
2017,05,25,16,43,20.00
2017,05,25,16,44,19.90
2017,05,25,16,45,19.90
2017,05,25,16,46,19.80
2017,05,25,16,47,19.80
2017,05,25,16,48,19.80
2017,05,25,16,49,19.80
2017,05,25,16,50,19.80
2017,05,25,16,51,19.80
2017,05,25,16,52,19.70
2017,05,25,16,53,19.70
2017,05,25,16,54,19.80
2017,05,25,16,55,19.80
2017,05,25,16,56,19.90
2017,05,25,16,57,19.90
2017,05,25,16,58,19.90
2017,05,25,16,59,20.00
2017,05,25,17,00,20.00
2017,05,25,17,01,20.10
2017,05,25,17,02,20.20
2017,05,25,17,03,20.20
2017,05,25,17,04,20.20
2017,05,25,17,05,20.20
2017,05,25,17,06,20.10
2017,05,25,17,07,20.10
2017,05,25,17,08,20.00
2017,05,25,17,09,19.90
2017,05,25,17,10,19.80
2017,05,25,17,11,19.70
2017,05,25,17,12,19.60
2017,05,25,17,13,19.60
2017,05,25,17,14,19.60
2017,05,25,17,15,19.70
2017,05,25,17,16,19.70
2017,05,25,17,17,19.80
2017,05,25,17,18,19.90
2017,05,25,17,19,19.90
2017,05,25,17,20,20.00
2017,05,25,17,21,20.10
2017,05,25,17,22,20.10
2017,05,25,17,23,20.10
2017,05,25,17,24,20.10
2017,05,25,17,25,20.10
2017,05,25,17,26,20.10
2017,05,25,17,27,20.10
2017,05,25,17,28,20.10
2017,05,25,17,29,20.10
2017,05,25,17,30,20.00
2017,05,25,17,31,20.00
2017,05,25,17,32,19.90
2017,05,25,17,33,19.90
2017,05,25,17,34,19.90
2017,05,25,17,35,19.90
2017,05,25,17,36,19.90
2017,05,25,17,37,19.90
2017,05,25,17,38,19.80
2017,05,25,17,39,19.90
2017,05,25,17,40,19.90
2017,05,25,17,41,19.90
2017,05,25,17,42,19.90
2017,05,25,17,43,19.90
2017,05,25,17,44,19.90
2017,05,25,17,45,19.80
2017,05,25,17,46,19.80
2017,05,25,17,47,19.80
2017,05,25,17,48,19.80
2017,05,25,17,49,19.80
2017,05,25,17,50,19.80
2017,05,25,17,51,19.80
2017,05,25,17,52,19.80
2017,05,25,17,53,19.80
2017,05,25,17,54,19.70
2017,05,25,17,55,19.70
2017,05,25,17,56,19.60
2017,05,25,17,57,19.50
2017,05,25,17,58,19.50
2017,05,25,17,59,19.50
2017,05,25,18,00,19.40
2017,05,25,18,01,19.40
2017,05,25,18,02,19.40
2017,05,25,18,03,19.30
2017,05,25,18,04,19.30
2017,05,25,18,05,19.30
2017,05,25,18,06,19.30
2017,05,25,18,07,19.20
2017,05,25,18,08,19.10
2017,05,25,18,09,19.10
2017,05,25,18,10,19.00
2017,05,25,18,11,19.00
2017,05,25,18,12,19.00
2017,05,25,18,13,19.00
2017,05,25,18,14,19.00
2017,05,25,18,15,19.10
2017,05,25,18,16,19.10
2017,05,25,18,17,19.10
2017,05,25,18,18,19.10
2017,05,25,18,19,19.10
2017,05,25,18,20,19.10
2017,05,25,18,21,19.00
2017,05,25,18,22,19.00
2017,05,25,18,23,19.00
2017,05,25,18,24,19.00
2017,05,25,18,25,19.00
2017,05,25,18,26,19.10
2017,05,25,18,27,19.00
2017,05,25,18,28,19.00
2017,05,25,18,29,19.00
2017,05,25,18,30,19.00
2017,05,25,18,31,19.00
2017,05,25,18,32,19.00
2017,05,25,18,33,19.00
2017,05,25,18,34,19.00
2017,05,25,18,35,19.00
2017,05,25,18,36,19.00
2017,05,25,18,37,19.10
2017,05,25,18,38,19.10
2017,05,25,18,39,19.20
2017,05,25,18,40,19.20
2017,05,25,18,41,19.20
2017,05,25,18,42,19.30
2017,05,25,18,43,19.30
2017,05,25,18,44,19.40
2017,05,25,18,45,19.50
2017,05,25,18,46,19.60
2017,05,25,18,47,19.70
2017,05,25,18,48,19.70
2017,05,25,18,49,19.80
2017,05,25,18,50,19.90
2017,05,25,18,51,20.00
2017,05,25,18,52,20.10
2017,05,25,18,53,20.10
2017,05,25,18,54,20.10
2017,05,25,18,55,20.20
2017,05,25,18,56,20.20
2017,05,25,18,57,20.20